Location: Nordegg
(52.4712°N, 116.0743°W)
Time: 14:35:21
(UTC+00:00)

Envisat - Pass Details

Date: 06 December 2021
Orbit: 764 x 766 km, 98.2° (Epoch: 26 January)

Event Time Altitude Azimuth Distance (km) Brightness Sun altitude
Rises 00:33:53 0° 192° (SSW) 3,222 6.8 -8.9°
Reaches altitude 10° 00:36:24 10° 202° (SSW) 2,301 6.2 -9.2°
Maximum altitude 00:40:56 32° 266° (W) 1,288 5.0 -9.9°
Drops below altitude 10° 00:45:30 10° 329° (NNW) 2,317 5.6 -10.5°
Sets 00:48:04 0° 339° (NNW) 3,248 6.2 -10.9°
